�N����,����,�~����,�C��,���x,�C��,����,���ϕ���,�ő�u�ԕ���,�ő厞����,���˗�,�I�_���x,�n�����x,�ő啗���N��,DTYPE
"17/01/18","00:10",0.0,-0.6,98.3,1023.4,297.8,1.1,1.4,328.2,0.00,-0.8,3.5,"00:01:04",1
"17/01/18","00:20",0.0,-0.6,97.5,1023.0,309.5,1.2,1.6,317.8,0.00,-0.9,3.3,"00:10:56",1
"17/01/18","00:30",0.0,-0.8,98.9,1023.2,322.3,1.3,1.9,320.6,0.00,-0.9,3.5,"00:28:24",1
"17/01/18","00:40",0.0,-0.7,97.9,1023.2,321.3,1.3,1.9,322.3,0.00,-0.9,3.4,"00:34:00",1
"17/01/18","00:50",0.0,-1.1,98.9,1023.0,293.9,1.0,1.7,317.9,0.00,-1.2,3.2,"00:46:08",1
"17/01/18","01:00",0.0,-0.8,98.1,1022.7,308.6,1.1,1.6,317.7,0.00,-1.0,3.4,"00:53:36",1
"17/01/18","01:10",0.0,-1.2,97.9,1022.5,315.8,1.3,1.9,317.1,0.00,-1.4,3.5,"01:01:04",1
"17/01/18","01:20",0.0,-1.4,99.4,1022.7,308.3,0.6,1.2,332.5,0.00,-1.4,3.5,"01:19:36",1
"17/01/18","01:30",0.0,-1.3,98.4,1023.2,326.0,1.3,1.7,349.1,0.00,-1.5,3.3,"01:28:08",1
"17/01/18","01:40",0.0,-1.5,98.1,1023.2,299.0,1.0,1.6,343.7,0.00,-1.7,3.5,"01:30:24",1
"17/01/18","01:50",0.0,-1.6,98.8,1023.2,293.2,1.6,2.0,309.2,0.00,-1.7,3.5,"01:47:44",1
"17/01/18","02:00",0.0,-1.1,98.7,1023.2,306.2,1.7,2.4,317.7,0.00,-1.2,3.4,"01:56:00",1
"17/01/18","02:10",0.0,-1.2,98.5,1022.7,357.4,0.6,1.4,322.9,0.00,-1.4,3.4,"02:00:16",1
"17/01/18","02:20",0.0,-1.4,98.4,1023.2,319.0,0.7,1.3,255.7,0.00,-1.6,3.4,"02:19:12",1
"17/01/18","02:30",0.0,-1.6,98.6,1023.2,314.9,1.0,1.9,315.3,0.00,-1.8,3.3,"02:29:44",1
"17/01/18","02:40",0.0,-1.7,98.5,1023.0,327.4,2.0,2.2,334.9,0.00,-1.9,3.0,"02:39:50",1
"17/01/18","02:50",0.0,-1.9,98.4,1023.0,319.0,2.0,2.2,324.8,0.00,-2.1,3.4,"02:46:24",1
"17/01/18","03:00",0.0,-2.1,98.6,1023.2,306.9,1.7,2.1,322.1,0.00,-2.3,3.1,"02:50:32",1
"17/01/18","03:10",0.0,-2.0,98.8,1022.7,319.4,2.1,2.4,323.3,0.00,-2.1,3.0,"03:08:28",1
"17/01/18","03:20",0.0,-2.0,98.9,1022.7,307.2,2.0,2.2,306.7,0.00,-2.1,3.2,"03:11:28",1
"17/01/18","03:30",0.0,-2.0,98.8,1023.2,315.9,2.1,2.5,320.3,0.00,-2.1,3.2,"03:24:32",1
"17/01/18","03:40",0.0,-1.8,99.2,1023.0,313.2,1.7,2.1,325.1,0.00,-1.9,3.0,"03:34:12",1
"17/01/18","03:50",0.0,-1.9,98.8,1023.0,323.0,2.1,2.4,331.0,0.00,-2.0,3.3,"03:48:00",1
"17/01/18","04:00",0.0,-2.2,98.7,1022.7,315.9,1.6,2.4,322.9,0.00,-2.3,3.1,"03:50:10",1
"17/01/18","04:10",0.0,-2.4,99.1,1023.0,296.7,1.2,1.7,303.5,0.00,-2.5,3.0,"04:00:40",1
"17/01/18","04:20",0.0,-2.1,99.0,1023.0,321.2,1.0,2.1,326.9,0.00,-2.2,3.0,"04:17:30",1
"17/01/18","04:30",0.0,-2.2,99.2,1022.5,319.5,1.0,1.8,313.3,0.00,-2.3,3.1,"04:29:32",1
"17/01/18","04:40",0.0,-2.4,98.7,1022.7,316.1,2.1,2.4,325.6,0.00,-2.5,2.9,"04:36:20",1
"17/01/18","04:50",0.0,-2.6,99.1,1023.0,322.4,2.0,2.5,325.5,0.00,-2.7,2.9,"04:40:24",1
"17/01/18","05:00",0.0,-2.6,99.2,1022.7,307.1,1.7,2.0,318.8,0.00,-2.7,3.1,"04:58:48",1
"17/01/18","05:10",0.0,-2.7,99.1,1022.7,308.7,1.6,1.8,309.6,0.00,-2.8,3.2,"05:03:28",1
"17/01/18","05:20",0.0,-2.8,99.2,1022.5,307.0,1.5,1.7,314.4,0.00,-2.9,2.9,"05:19:44",1
"17/01/18","05:30",0.0,-2.7,99.2,1022.5,318.8,1.6,2.1,321.5,0.00,-2.8,3.0,"05:20:02",1
"17/01/18","05:40",0.0,-2.8,99.3,1022.5,319.5,2.1,2.4,314.2,0.00,-2.9,2.9,"05:34:00",1
"17/01/18","05:50",0.0,-2.7,99.1,1022.5,314.4,1.7,2.1,324.3,0.00,-2.8,2.9,"05:41:20",1
"17/01/18","06:00",0.0,-3.0,99.0,1022.7,303.1,1.7,2.1,324.4,0.00,-3.1,2.9,"05:53:34",1
"17/01/18","06:10",0.0,-2.7,99.4,1023.0,309.1,1.8,2.2,317.7,0.00,-2.7,2.8,"06:06:22",1
"17/01/18","06:20",0.0,-2.4,99.4,1023.0,297.9,1.6,2.0,312.5,0.00,-2.4,2.8,"06:19:24",1
"17/01/18","06:30",0.0,-2.6,99.1,1023.0,310.2,1.6,2.2,309.2,0.00,-2.7,2.9,"06:27:52",1
"17/01/18","06:40",0.0,-2.8,99.2,1022.7,320.5,1.8,2.1,321.6,0.00,-2.9,2.7,"06:30:40",1
"17/01/18","06:50",0.0,-3.0,99.2,1023.0,314.8,1.8,2.5,324.6,0.00,-3.1,2.7,"06:47:22",1
"17/01/18","07:00",0.0,-3.1,99.2,1023.0,299.1,1.2,2.0,322.3,0.00,-3.2,3.0,"06:51:30",1
"17/01/18","07:10",0.0,-3.2,99.1,1023.0,313.1,1.5,2.2,321.5,0.00,-3.3,2.7,"07:08:26",1
"17/01/18","07:20",0.0,-3.2,99.2,1022.7,316.1,1.6,2.1,323.8,0.00,-3.3,2.6,"07:13:46",1
"17/01/18","07:30",0.0,-3.1,99.2,1023.0,301.9,0.6,1.6,314.8,0.00,-3.2,2.9,"07:29:38",1
"17/01/18","07:40",0.0,-2.8,99.2,1023.0,317.1,2.0,2.6,323.5,0.00,-2.9,2.8,"07:36:18",1
"17/01/18","07:50",0.0,-2.6,99.1,1023.0,308.8,1.8,2.7,323.6,0.00,-2.7,2.7,"07:41:12",1
"17/01/18","08:00",0.0,-2.4,99.5,1023.0,311.7,2.3,2.7,321.6,0.01,-2.4,2.6,"07:51:14",1
"17/01/18","08:10",0.0,-1.5,100.0,1023.0,301.1,2.3,2.8,308.7,0.02,-1.5,2.7,"08:07:04",1
"17/01/18","08:20",0.0,-1.1,100.0,1023.0,296.3,0.8,2.1,315.1,0.03,-1.1,2.9,"08:11:12",1
"17/01/18","08:30",0.0,-0.7,99.6,1023.4,306.2,1.1,2.5,316.1,0.04,-0.7,2.6,"08:23:12",1
"17/01/18","08:40",0.0,-0.2,99.6,1023.4,330.5,1.1,2.5,314.5,0.06,-0.2,2.7,"08:32:24",1
"17/01/18","08:50",0.0,0.3,98.2,1023.7,320.6,0.5,1.1,285.8,0.08,0.1,2.8,"08:49:58",1
"17/01/18","09:00",0.0,0.9,97.7,1023.7,285.0,1.1,1.8,316.1,0.10,0.6,2.9,"08:51:36",1
"17/01/18","09:10",0.0,1.6,95.6,1023.7,286.5,0.7,1.4,323.7,0.13,1.0,2.7,"09:08:32",1
"17/01/18","09:20",0.0,2.1,94.9,1023.9,297.9,1.2,1.9,308.5,0.15,1.4,2.9,"09:14:54",1
"17/01/18","09:30",0.0,2.5,91.0,1023.9,246.1,1.0,1.3,247.3,0.18,1.2,3.0,"09:27:36",1
"17/01/18","09:40",0.0,3.1,87.9,1024.4,242.9,0.6,1.2,255.3,0.19,1.3,3.0,"09:32:16",1
"17/01/18","09:50",0.0,3.6,86.0,1024.1,212.3,0.3,1.0,257.5,0.22,1.5,2.9,"09:48:16",1
"17/01/18","10:00",0.0,3.7,85.1,1024.1,173.3,0.8,2.1,115.0,0.25,1.5,3.0,"09:54:08",1
"17/01/18","10:10",0.0,4.3,82.7,1024.4,241.1,1.2,2.1,216.6,0.27,1.7,2.9,"10:00:48",1
"17/01/18","10:20",0.0,4.7,80.5,1024.6,243.1,1.2,2.2,247.4,0.30,1.7,3.1,"10:16:32",1
"17/01/18","10:30",0.0,5.0,78.7,1024.4,241.8,1.2,1.8,241.1,0.30,1.7,3.1,"10:21:54",1
"17/01/18","10:40",0.0,5.3,77.0,1024.9,73.7,0.6,2.0,194.9,0.32,1.6,3.4,"10:30:32",1
"17/01/18","10:50",0.0,6.3,73.8,1024.9,295.0,1.1,2.1,314.1,0.36,2.0,3.4,"10:47:52",1
"17/01/18","11:00",0.0,6.3,72.6,1024.9,317.2,1.1,2.0,329.1,0.35,1.8,3.6,"10:58:00",1
"17/01/18","11:10",0.0,7.1,68.9,1024.9,273.9,0.8,1.3,262.2,0.39,1.8,3.7,"11:09:04",1
"17/01/18","11:20",0.0,7.4,68.3,1025.1,255.3,0.6,1.2,238.2,0.41,2.0,4.0,"11:11:20",1
"17/01/18","11:30",0.0,7.3,67.6,1024.9,225.2,0.5,1.2,288.6,0.39,1.7,3.9,"11:29:20",1
"17/01/18","11:40",0.0,7.6,65.7,1024.4,237.8,0.6,1.3,319.8,0.42,1.6,4.2,"11:30:08",1
"17/01/18","11:50",0.0,8.3,62.6,1023.9,241.7,0.3,0.8,204.3,0.43,1.6,4.2,"11:49:44",1
"17/01/18","12:00",0.0,8.2,61.8,1023.7,244.9,0.3,0.6,292.0,0.39,1.4,4.4,"11:56:24",1
"17/01/18","12:10",0.0,8.6,58.9,1023.4,258.8,0.6,1.4,235.5,0.41,1.1,4.5,"12:08:48",1
"17/01/18","12:20",0.0,8.7,57.8,1023.4,163.6,0.7,1.7,138.8,0.44,0.9,4.8,"12:11:44",1
"17/01/18","12:30",0.0,8.5,58.5,1023.0,220.6,1.1,3.3,236.1,0.43,0.9,4.8,"12:29:20",1
"17/01/18","12:40",0.0,8.8,58.1,1022.5,214.5,1.2,3.4,234.7,0.44,1.1,5.0,"12:31:04",1
"17/01/18","12:50",0.0,8.9,56.7,1022.3,358.1,0.5,1.2,121.2,0.43,0.8,5.3,"12:42:08",1
"17/01/18","13:00",0.0,8.7,56.8,1021.5,131.5,0.8,2.5,120.8,0.43,0.7,5.4,"12:51:44",1
"17/01/18","13:10",0.0,8.6,57.4,1021.5,88.8,0.7,1.9,51.1,0.41,0.7,5.2,"13:02:32",1
"17/01/18","13:20",0.0,9.3,56.8,1021.3,224.6,0.5,1.8,228.1,0.41,1.2,5.4,"13:13:12",1
"17/01/18","13:30",0.0,8.9,58.6,1021.1,142.9,1.2,3.1,139.7,0.40,1.3,5.5,"13:24:40",1
"17/01/18","13:40",0.0,9.3,57.6,1020.6,219.6,0.8,1.7,223.9,0.38,1.4,5.6,"13:33:04",1
"17/01/18","13:50",0.0,9.4,57.2,1020.8,300.4,0.7,1.7,236.5,0.37,1.4,5.5,"13:40:08",1
"17/01/18","14:00",0.0,9.2,58.4,1020.6,155.8,1.1,2.6,129.6,0.34,1.5,5.7,"13:54:32",1
"17/01/18","14:10",0.0,9.1,56.1,1020.4,187.9,1.1,3.1,140.4,0.30,0.9,5.8,"14:02:56",1
"17/01/18","14:20",0.0,9.3,55.0,1020.1,271.7,1.1,1.7,242.9,0.22,0.8,5.8,"14:12:08",1
"17/01/18","14:30",0.0,9.4,55.0,1020.1,214.1,1.2,2.8,240.7,0.27,0.9,5.7,"14:22:24",1
"17/01/18","14:40",0.2,10.0,52.6,1020.1,277.4,1.0,1.8,320.0,0.23,0.8,5.9,"14:36:00",1
"17/01/18","14:50",0.0,9.6,52.5,1020.4,208.0,0.5,1.2,227.6,0.21,0.4,5.8,"14:44:40",1
"17/01/18","15:00",0.0,9.9,52.9,1020.1,214.4,0.8,2.0,194.4,0.24,0.8,6.1,"14:55:52",1
"17/01/18","15:10",0.0,9.4,52.0,1020.1,213.1,0.8,1.9,200.8,0.20,0.1,5.9,"15:03:28",1
"17/01/18","15:20",0.0,9.4,51.4,1020.1,310.8,0.7,1.4,319.5,0.19,-0.1,6.0,"15:13:28",1
"17/01/18","15:30",0.0,10.0,50.8,1020.1,252.6,0.6,1.0,288.0,0.18,0.3,6.1,"15:27:20",1
"17/01/18","15:40",0.0,9.5,52.5,1019.9,268.3,0.6,1.0,299.9,0.14,0.3,5.9,"15:33:36",1
"17/01/18","15:50",0.0,9.5,53.6,1019.9,260.1,0.8,1.7,243.2,0.13,0.6,6.0,"15:41:20",1
"17/01/18","16:00",0.0,9.4,51.9,1020.1,270.9,0.6,1.3,262.6,0.11,0.1,6.1,"15:59:28",1
"17/01/18","16:10",0.0,9.1,54.2,1020.1,253.3,1.0,1.6,216.5,0.07,0.4,5.9,"16:04:40",1
"17/01/18","16:20",0.0,9.3,57.7,1019.9,274.0,1.1,2.4,304.9,0.05,1.4,6.2,"16:19:36",1
"17/01/18","16:30",0.0,8.2,62.4,1019.9,286.8,1.7,2.8,308.4,0.03,1.5,6.1,"16:21:04",1
"17/01/18","16:40",0.0,7.3,67.8,1020.1,281.3,2.1,2.7,273.5,0.01,1.8,5.8,"16:39:04",1
"17/01/18","16:50",0.0,6.3,72.4,1019.4,293.3,2.5,3.3,305.7,0.00,1.7,5.8,"16:45:28",1
"17/01/18","17:00",0.0,5.6,76.2,1019.7,287.7,2.6,3.2,294.4,0.00,1.8,5.9,"16:54:32",1
"17/01/18","17:10",0.0,5.2,78.5,1019.4,284.1,2.0,2.6,269.3,0.00,1.8,5.6,"17:01:20",1
"17/01/18","17:20",0.0,4.9,80.5,1019.4,281.3,2.3,3.5,287.6,0.00,1.9,5.4,"17:15:52",1
"17/01/18","17:30",0.0,4.5,81.9,1019.2,280.7,2.3,4.4,308.8,0.00,1.7,5.6,"17:21:44",1
"17/01/18","17:40",0.0,4.2,83.2,1019.2,278.7,2.2,3.3,303.5,0.00,1.6,5.4,"17:30:08",1
"17/01/18","17:50",0.0,3.9,84.3,1019.0,284.9,2.1,2.9,303.2,0.00,1.5,5.5,"17:42:56",1
"17/01/18","18:00",0.0,3.7,85.4,1019.2,279.5,2.0,3.5,314.3,0.00,1.5,5.3,"17:51:04",1
"17/01/18","18:10",0.0,3.5,86.0,1019.2,295.3,2.2,2.9,263.3,0.00,1.4,5.0,"18:01:20",1
"17/01/18","18:20",0.0,3.4,86.7,1019.2,286.9,1.7,2.9,338.2,0.00,1.4,5.2,"18:10:08",1
"17/01/18","18:30",0.0,3.2,87.2,1019.2,296.5,1.8,2.5,325.8,0.00,1.3,4.9,"18:28:08",1
"17/01/18","18:40",0.0,3.2,88.0,1019.0,291.9,2.3,4.7,318.4,0.00,1.4,4.9,"18:32:32",1
"17/01/18","18:50",0.0,3.2,87.5,1019.0,282.9,2.0,2.9,300.1,0.00,1.4,5.0,"18:48:16",1
"17/01/18","19:00",0.0,3.0,87.6,1019.0,295.7,2.0,3.4,318.6,0.00,1.2,4.8,"18:53:28",1
"17/01/18","19:10",0.0,3.0,88.2,1019.0,300.2,2.3,3.2,316.3,0.00,1.3,4.7,"19:06:00",1
"17/01/18","19:20",0.0,3.2,88.1,1019.2,325.1,2.7,3.7,335.3,0.00,1.5,4.7,"19:11:36",1
"17/01/18","19:30",0.0,3.0,87.4,1019.4,323.7,1.6,2.9,317.8,0.00,1.2,4.7,"19:20:40",1
"17/01/18","19:40",0.0,2.3,88.7,1019.0,318.9,2.3,2.8,329.3,0.00,0.7,4.7,"19:37:54",1
"17/01/18","19:50",0.0,2.0,90.3,1019.0,290.5,1.1,2.1,337.7,0.00,0.6,4.7,"19:40:08",1
"17/01/18","20:00",0.0,1.8,91.4,1019.0,291.5,1.6,1.9,316.2,0.00,0.6,4.7,"19:53:20",1
"17/01/18","20:10",0.0,1.7,92.3,1018.5,291.5,1.8,2.6,310.2,0.00,0.6,4.3,"20:06:28",1
"17/01/18","20:20",0.0,1.9,93.2,1018.2,319.3,1.2,2.0,303.1,0.00,1.0,4.7,"20:12:44",1
"17/01/18","20:30",0.0,1.8,93.4,1018.2,311.4,2.3,3.1,314.9,0.00,0.9,4.4,"20:24:30",1
"17/01/18","20:40",0.0,1.8,94.1,1018.2,286.4,1.8,2.0,274.1,0.00,1.0,4.4,"20:33:22",1
"17/01/18","20:50",0.0,1.9,94.1,1018.2,293.3,1.1,2.2,319.0,0.00,1.1,4.5,"20:40:56",1
"17/01/18","21:00",0.0,1.8,93.9,1018.2,294.9,1.6,2.7,313.4,0.00,1.0,4.4,"20:56:44",1
"17/01/18","21:10",0.0,1.7,94.1,1018.0,292.5,1.8,2.2,307.3,0.00,0.9,4.5,"21:07:12",1
"17/01/18","21:20",0.0,2.0,94.6,1018.0,291.7,2.1,3.1,312.9,0.00,1.3,4.3,"21:15:10",1
"17/01/18","21:30",0.0,2.3,94.2,1018.2,302.8,1.5,2.7,301.9,0.00,1.5,4.4,"21:24:02",1
"17/01/18","21:40",0.0,2.2,93.5,1018.0,296.3,1.6,2.7,314.9,0.00,1.3,4.4,"21:36:52",1
"17/01/18","21:50",0.0,2.2,93.5,1018.2,327.6,1.8,3.2,327.7,0.00,1.3,4.3,"21:40:58",1
"17/01/18","22:00",0.0,2.0,93.5,1018.0,299.1,1.5,2.4,335.3,0.00,1.1,4.4,"21:50:48",1
"17/01/18","22:10",0.0,1.8,93.9,1018.5,288.6,1.6,2.6,312.3,0.00,1.0,4.4,"22:07:54",1
"17/01/18","22:20",0.0,1.7,94.3,1018.2,316.1,2.3,3.5,323.0,0.00,0.9,4.3,"22:18:06",1
"17/01/18","22:30",0.0,1.7,94.5,1018.2,303.8,2.1,3.1,316.9,0.00,1.0,4.3,"22:21:20",1
"17/01/18","22:40",0.0,1.7,94.9,1018.2,294.5,1.8,2.7,325.6,0.00,1.0,4.3,"22:39:04",1
"17/01/18","22:50",0.0,1.8,95.2,1018.2,284.0,1.2,1.8,277.9,0.00,1.2,4.2,"22:49:34",1
"17/01/18","23:00",0.0,1.9,95.3,1018.2,285.8,1.3,2.1,297.5,0.00,1.3,4.3,"22:50:02",1
"17/01/18","23:10",0.0,2.0,95.0,1018.7,330.1,2.0,3.9,334.5,0.00,1.3,4.2,"23:04:20",1
"17/01/18","23:20",0.0,1.8,95.0,1018.5,254.3,0.6,1.1,268.4,0.00,1.1,4.3,"23:12:26",1
"17/01/18","23:30",0.0,1.6,95.4,1017.8,309.0,2.1,2.8,321.8,0.00,1.0,4.2,"23:23:46",1
"17/01/18","23:40",0.0,1.6,95.8,1018.2,282.3,1.6,1.9,306.4,0.00,1.0,4.1,"23:30:08",1
"17/01/18","23:50",0.0,1.7,96.1,1018.5,300.6,2.1,2.6,315.5,0.00,1.2,4.1,"23:42:40",1
"17/01/18","24:00",0.0,1.7,96.0,1018.0,291.3,1.6,2.1,276.5,0.00,1.2,4.2,"23:51:04",1
